User: anonymous   Login
Location: Fort Wayne
(41.1310°N, 85.1290°W)
Time: 18:27:56
(UTC-05:00)
Language:

COSMOS 2406 - Orbit

View from above orbital plane
View from above orbital plane
View from above satellite
View from above satellite

Ground track
Ground track

The orbit data is extracted from the following two-line orbital elements,

1 28352U 04021A   17019.72365589 -.00000256  00000-0 -11462-3 0  9992
2 28352  71.0024  74.6979 0014699 322.5269  37.4826 14.11609078649899
Epoch (UTC): 19 January 2017 17:22:03
Eccentricity: 0.0014699
inclination: 71.0024°
perigee height: 843 km
apogee height: 864 km
right ascension of ascending node: 74.6979°
argument of perigee: 322.5269°
revolutions per day: 14.11609078
mean anomaly at epoch: 37.4826°
orbit number at epoch: 64989

The dashed part of the orbit path shows where the satellite is in the earth's shadow,  

DLR